When you browse on this site, cookies collect data to enhance your experience and personalize the content and advertising you see.
Visit our Privacy Policy to learn more. By continuing to use the site, you agree to this use of cookies and data.
  • In Romania
  • List of Countries
  • For 7 days
  • Water Temperature
  • Weather Map
  • Weather Widgets
  • user-avatar
    Login

    Hourly Weather Warwick

    Today, 11 December, Wednesday

    Time Temperature Precipitation Wind Pressure Humidity
    00:00 +3°C° 0 mm 5 mps 749 mmHg 80%
    01:00 +3°C° 0 mm 5 mps 749 mmHg 81%
    02:00 +3°C° 0 mm 5 mps 749 mmHg 83%
    03:00 +3°C° 0 mm 4 mps 749 mmHg 84%
    04:00 +3°C° 0 mm 4 mps 749 mmHg 85%
    05:00 +3°C° 0 mm 4 mps 749 mmHg 86%
    06:00 +3°C° 0 mm 3 mps 748 mmHg 87%
    07:00 +3°C° 0 mm 4 mps 748 mmHg 88%
    08:00 +3°C° 0 mm 4 mps 747 mmHg 88%
    09:00 +4°C° 0 mm 4 mps 747 mmHg 89%
    10:00 +4°C° 0 mm 4 mps 747 mmHg 86%
    11:00 +5°C° 0 mm 4 mps 746 mmHg 82%
    12:00 +6°C° 0 mm 5 mps 746 mmHg 78%
    13:00 +5°C° 0.3 mm 4 mps 745 mmHg 82%
    14:00 +5°C° 0.3 mm 4 mps 745 mmHg 85%
    15:00 +4°C° 0.3 mm 4 mps 744 mmHg 88%
    16:00 +3°C° 0.3 mm 4 mps 745 mmHg 88%
    17:00 +3°C° 0.3 mm 4 mps 745 mmHg 88%
    18:00 +2°C° 0.3 mm 3 mps 745 mmHg 88%
    19:00 +2°C° 0 mm 3 mps 746 mmHg 87%
    20:00 +2°C° 0 mm 3 mps 746 mmHg 86%
    21:00 0°C° 0 mm 4 mps 746 mmHg 85%
    22:00 0°C° 0 mm 4 mps 746 mmHg 85%
    23:00 0°C° 0 mm 4 mps 747 mmHg 86%

    Tomorrow, 12 December, Thursday

    Time Temperature Precipitation Wind Pressure Humidity
    00:00 0°C° 0 mm 4 mps 747 mmHg 86%
    01:00 0°C° 0 mm 4 mps 746 mmHg 87%
    02:00 0°C° 0 mm 3 mps 746 mmHg 88%
    03:00 0°C° 0 mm 3 mps 746 mmHg 88%
    04:00 0°C° 0 mm 3 mps 745 mmHg 88%
    05:00 0°C° 0 mm 3 mps 745 mmHg 87%
    06:00 0°C° 0 mm 3 mps 744 mmHg 87%
    07:00 0°C° 0 mm 4 mps 743 mmHg 86%
    08:00 0°C° 0 mm 4 mps 742 mmHg 86%
    09:00 0°C° 0 mm 5 mps 741 mmHg 86%
    10:00 +1°C° 0 mm 6 mps 739 mmHg 87%
    11:00 +2°C° 0 mm 7 mps 737 mmHg 88%
    12:00 +2°C° 0 mm 8 mps 735 mmHg 89%
    13:00 +4°C° 1.4 mm 8 mps 733 mmHg 90%
    14:00 +3°C° 1.4 mm 9 mps 731 mmHg 91%
    15:00 +5°C° 1.4 mm 9 mps 729 mmHg 92%
    16:00 +5°C° 1.4 mm 8 mps 727 mmHg 93%
    17:00 +5°C° 1.4 mm 7 mps 726 mmHg 93%
    18:00 +7°C° 1.4 mm 6 mps 724 mmHg 94%
    19:00 +5°C° 0.7 mm 7 mps 724 mmHg 91%
    20:00 +5°C° 0.7 mm 8 mps 723 mmHg 89%
    21:00 +4°C° 0.7 mm 8 mps 722 mmHg 87%
    22:00 +3°C° 0.5 mm 9 mps 722 mmHg 87%
    23:00 +3°C° 0.5 mm 9 mps 722 mmHg 88%

    Day after tomorrow, 13 December, Friday

    Time Temperature Precipitation Wind Pressure Humidity
    00:00 +2°C° 0.5 mm 10 mps 722 mmHg 88%
    01:00 +2°C° 0.2 mm 10 mps 722 mmHg 88%
    02:00 +2°C° 0.2 mm 10 mps 722 mmHg 88%
    03:00 +2°C° 0.2 mm 10 mps 722 mmHg 88%
    04:00 +2°C° 0.3 mm 10 mps 723 mmHg 86%
    05:00 +2°C° 0.3 mm 10 mps 723 mmHg 84%
    06:00 +2°C° 0.3 mm 10 mps 724 mmHg 82%
    07:00 +3°C° 0.2 mm 10 mps 725 mmHg 82%
    08:00 +3°C° 0.2 mm 10 mps 726 mmHg 81%
    09:00 +5°C° 0.2 mm 9 mps 727 mmHg 81%
    10:00 +5°C° 0 mm 8 mps 727 mmHg 81%
    11:00 +5°C° 0 mm 8 mps 728 mmHg 80%
    12:00 +6°C° 0 mm 7 mps 729 mmHg 80%
    13:00 +6°C° 0.1 mm 7 mps 729 mmHg 80%
    14:00 +6°C° 0.1 mm 7 mps 730 mmHg 80%
    15:00 +5°C° 0.1 mm 6 mps 731 mmHg 79%
    16:00 +5°C° 0 mm 6 mps 731 mmHg 81%
    17:00 +5°C° 0 mm 5 mps 732 mmHg 83%
    18:00 +4°C° 0 mm 4 mps 732 mmHg 85%
    19:00 +4°C° 0.1 mm 4 mps 731 mmHg 85%
    20:00 +3°C° 0.1 mm 5 mps 731 mmHg 86%
    21:00 +3°C° 0.1 mm 5 mps 730 mmHg 87%
    22:00 +5°C° 0.8 mm 5 mps 728 mmHg 88%
    23:00 +5°C° 0.8 mm 6 mps 727 mmHg 88%

    14 December, Saturday

    Time Temperature Precipitation Wind Pressure Humidity
    00:00 +6°C° 0.8 mm 7 mps 726 mmHg 89%
    01:00 +5°C° 0.2 mm 9 mps 726 mmHg 83%
    02:00 +4°C° 0.2 mm 11 mps 727 mmHg 78%
    03:00 +3°C° 0.2 mm 13 mps 727 mmHg 73%
    04:00 +2°C° 0 mm 12 mps 729 mmHg 71%
    05:00 +2°C° 0 mm 12 mps 730 mmHg 69%
    06:00 +1°C° 0 mm 11 mps 731 mmHg 67%
    07:00 +1°C° 0 mm 10 mps 732 mmHg 67%
    08:00 +1°C° 0 mm 10 mps 733 mmHg 66%
    09:00 0°C° 0 mm 9 mps 734 mmHg 66%
    10:00 +1°C° 0 mm 10 mps 734 mmHg 64%
    11:00 +1°C° 0 mm 10 mps 735 mmHg 62%
    12:00 +2°C° 0 mm 11 mps 735 mmHg 60%
    13:00 +1°C° 0 mm 10 mps 736 mmHg 60%
    14:00 +1°C° 0 mm 10 mps 737 mmHg 60%
    15:00 +1°C° 0 mm 9 mps 737 mmHg 59%
    16:00 0°C° 0 mm 8 mps 738 mmHg 60%
    17:00 0°C° 0 mm 8 mps 738 mmHg 60%
    18:00 -1°C° 0 mm 7 mps 739 mmHg 61%
    19:00 -1°C° 0 mm 7 mps 739 mmHg 65%
    20:00 -1°C° 0 mm 6 mps 739 mmHg 70%
    21:00 -1°C° 0 mm 6 mps 740 mmHg 74%
    22:00 -1°C° 0 mm 6 mps 739 mmHg 78%
    23:00 -1°C° 0 mm 6 mps 738 mmHg 81%

    15 December, Sunday

    Time Temperature Precipitation Wind Pressure Humidity
    00:00 -1°C° 0 mm 6 mps 737 mmHg 84%
    01:00 +1°C° 0.7 mm 6 mps 736 mmHg 87%
    02:00 +2°C° 0.7 mm 6 mps 734 mmHg 90%
    03:00 +3°C° 0.7 mm 6 mps 733 mmHg 93%
    04:00 +2°C° 0.2 mm 7 mps 733 mmHg 88%
    05:00 +1°C° 0.2 mm 8 mps 733 mmHg 83%
    06:00 0°C° 0.2 mm 8 mps 732 mmHg 78%
    07:00 0°C° 0.1 mm 8 mps 734 mmHg 80%
    08:00 0°C° 0.1 mm 7 mps 736 mmHg 82%
    09:00 +1°C° 0.1 mm 6 mps 738 mmHg 85%
    10:00 +2°C° 0 mm 6 mps 739 mmHg 80%
    11:00 +2°C° 0 mm 6 mps 740 mmHg 75%
    12:00 +3°C° 0 mm 6 mps 741 mmHg 70%
    13:00 +3°C° 0.1 mm 6 mps 741 mmHg 75%
    14:00 +3°C° 0.1 mm 6 mps 741 mmHg 80%
    15:00 +3°C° 0.1 mm 6 mps 741 mmHg 85%
    16:00 +2°C° 0.1 mm 6 mps 741 mmHg 83%
    17:00 +2°C° 0.1 mm 6 mps 742 mmHg 81%
    18:00 +2°C° 0.1 mm 7 mps 742 mmHg 78%
    19:00 +2°C° 0 mm 6 mps 742 mmHg 80%
    20:00 +1°C° 0 mm 5 mps 743 mmHg 82%
    21:00 +1°C° 0 mm 4 mps 743 mmHg 84%
    22:00 +1°C° 0 mm 4 mps 743 mmHg 84%
    23:00 +1°C° 0 mm 5 mps 743 mmHg 84%

    16 December, Monday

    Time Temperature Precipitation Wind Pressure Humidity
    00:00 +1°C° 0 mm 5 mps 744 mmHg 84%
    01:00 +1°C° 0 mm 4 mps 744 mmHg 84%
    02:00 +1°C° 0 mm 4 mps 744 mmHg 85%
    03:00 +1°C° 0 mm 3 mps 744 mmHg 86%
    04:00 +2°C° 0 mm 3 mps 743 mmHg 87%
    05:00 +2°C° 0 mm 3 mps 743 mmHg 88%
    06:00 +3°C° 0 mm 4 mps 743 mmHg 88%
    07:00 +3°C° 0.1 mm 4 mps 743 mmHg 90%
    08:00 +4°C° 0.1 mm 4 mps 743 mmHg 92%
    09:00 +4°C° 0.1 mm 4 mps 743 mmHg 94%
    10:00 +4°C° 0 mm 3 mps 743 mmHg 93%
    11:00 +5°C° 0 mm 3 mps 743 mmHg 92%
    12:00 +7°C° 0 mm 3 mps 742 mmHg 91%
    13:00 +5°C° 0 mm 3 mps 742 mmHg 91%
    14:00 +6°C° 0 mm 2 mps 742 mmHg 91%
    15:00 +6°C° 0 mm 2 mps 741 mmHg 90%
    16:00 +6°C° 0 mm 2 mps 741 mmHg 90%
    17:00 +5°C° 0 mm 2 mps 741 mmHg 90%
    18:00 +5°C° 0 mm 2 mps 741 mmHg 90%
    19:00 +4°C° 0 mm 2 mps 742 mmHg 90%
    20:00 +4°C° 0 mm 2 mps 742 mmHg 90%
    21:00 +4°C° 0 mm 2 mps 742 mmHg 90%
    22:00 +3°C° 0 mm 3 mps 742 mmHg 89%
    23:00 +3°C° 0 mm 3 mps 743 mmHg 89%
    Show more